N23MJ KGCN-KVNY

Flight info

Callsign N23MJ
Flight time N/A
Altitude 34000
Route PARKS4 PGS WELUM JANNY5
Aircraft HDJT/L-SABDGRWY/H

Departure

Time 2026-05-06 03:50
Airport Grand Canyon National Park Airport (KGCN)

Arrival

Time N/A
Airport Van Nuys Airport (KVNY)
Time Latitude Longitude Altitude Speed Heading
2026-05-06 03:35 35.95826 -112.13788 6604 ft 0 kts 131°
2026-05-06 03:47 35.95830 -112.13771 6605 ft 6 kts 10°
2026-05-06 03:47 35.95918 -112.13803 6606 ft 21 kts 36°
2026-05-06 03:47 35.96047 -112.13663 6611 ft 19 kts 39°
2026-05-06 03:48 35.96104 -112.13635 6613 ft 0 kts 321°
2026-05-06 03:49 35.96142 -112.13731 6612 ft 25 kts 247°
2026-05-06 03:49 35.95917 -112.13982 6603 ft 68 kts 221°
2026-05-06 03:50 35.95441 -112.14478 6584 ft 119 kts 221°
2026-05-06 03:50 35.94714 -112.15310 6736 ft 162 kts 223°
2026-05-06 03:50 35.93827 -112.16302 7351 ft 183 kts 224°
2026-05-06 03:50 35.92849 -112.17406 8091 ft 197 kts 225°
2026-05-06 03:51 35.91841 -112.18509 9045 ft 199 kts 223°
2026-05-06 03:51 35.91056 -112.19875 9894 ft 196 kts 255°
2026-05-06 03:51 35.91026 -112.21665 10016 ft 231 kts 286°
2026-05-06 03:51 35.91726 -112.23616 10022 ft 265 kts 295°
2026-05-06 03:52 35.92449 -112.25779 10524 ft 272 kts 286°
2026-05-06 03:52 35.92622 -112.28086 11174 ft 276 kts 267°
2026-05-06 03:52 35.92338 -112.30453 11694 ft 283 kts 257°
2026-05-06 03:52 35.91719 -112.32782 12251 ft 288 kts 253°
2026-05-06 03:53 35.91138 -112.35169 12776 ft 292 kts 257°
2026-05-06 03:53 35.90632 -112.37619 13322 ft 296 kts 257°
2026-05-06 03:53 35.90079 -112.40082 13818 ft 301 kts 255°
2026-05-06 03:53 35.89469 -112.42572 14298 ft 304 kts 255°
2026-05-06 03:54 35.88874 -112.45086 14777 ft 306 kts 256°
2026-05-06 03:54 35.88288 -112.47621 15249 ft 310 kts 256°
2026-05-06 03:54 35.87688 -112.50156 15700 ft 312 kts 255°
2026-05-06 03:54 35.87062 -112.52771 16156 ft 315 kts 255°
2026-05-06 03:55 35.86456 -112.55343 16597 ft 318 kts 255°
2026-05-06 03:55 35.85835 -112.57966 17037 ft 320 kts 255°
2026-05-06 03:55 35.85204 -112.60609 17482 ft 323 kts 255°
2026-05-06 03:55 35.84569 -112.63278 17917 ft 325 kts 255°
2026-05-06 03:56 35.83928 -112.65971 18322 ft 328 kts 255°
2026-05-06 03:56 35.83282 -112.68683 18681 ft 330 kts 255°
2026-05-06 03:56 35.82633 -112.71403 19036 ft 332 kts 255°
2026-05-06 03:56 35.81979 -112.74140 19373 ft 335 kts 255°
2026-05-06 03:57 35.81315 -112.76917 19711 ft 337 kts 255°
2026-05-06 03:57 35.80650 -112.79690 20035 ft 339 kts 255°
2026-05-06 03:57 35.79992 -112.82455 20345 ft 342 kts 255°
2026-05-06 03:57 35.79312 -112.85274 20666 ft 344 kts 255°
2026-05-06 03:58 35.78629 -112.88099 20976 ft 346 kts 255°
2026-05-06 03:58 35.77948 -112.90950 21276 ft 348 kts 255°
2026-05-06 03:58 35.77261 -112.93821 21571 ft 351 kts 255°
2026-05-06 03:58 35.76557 -112.96715 21860 ft 353 kts 255°
2026-05-06 03:59 35.75856 -112.99621 22146 ft 355 kts 255°
2026-05-06 03:59 35.75152 -113.02544 22417 ft 357 kts 255°
2026-05-06 03:59 35.74441 -113.05480 22675 ft 359 kts 255°
2026-05-06 03:59 35.73722 -113.08438 22932 ft 361 kts 255°
2026-05-06 04:00 35.73003 -113.11412 23186 ft 363 kts 255°
2026-05-06 04:00 35.72279 -113.14396 23423 ft 365 kts 257°
2026-05-06 04:00 35.71560 -113.17364 23601 ft 368 kts 255°
2026-05-06 04:00 35.70820 -113.20388 23802 ft 369 kts 255°
2026-05-06 04:01 35.70082 -113.23422 23988 ft 371 kts 255°
2026-05-06 04:01 35.69339 -113.26474 24173 ft 373 kts 255°
2026-05-06 04:01 35.68588 -113.29538 24365 ft 374 kts 255°
2026-05-06 04:01 35.67835 -113.32618 24538 ft 377 kts 255°
2026-05-06 04:02 35.67078 -113.35720 24698 ft 379 kts 255°
2026-05-06 04:02 35.66325 -113.38797 24871 ft 380 kts 255°
2026-05-06 04:02 35.65558 -113.41910 25061 ft 381 kts 256°
2026-05-06 04:02 35.64789 -113.45032 25218 ft 383 kts 256°
2026-05-06 04:03 35.64014 -113.48183 25353 ft 385 kts 255°
2026-05-06 04:03 35.63240 -113.51336 25523 ft 386 kts 255°
2026-05-06 04:03 35.62465 -113.54508 25694 ft 387 kts 257°
2026-05-06 04:03 35.61877 -113.57727 25827 ft 387 kts 262°
2026-05-06 04:04 35.61374 -113.61000 25867 ft 392 kts 262°
2026-05-06 04:04 35.60838 -113.64301 25863 ft 397 kts 260°
2026-05-06 04:04 35.60237 -113.67642 25865 ft 401 kts 260°
2026-05-06 04:04 35.59648 -113.71014 25868 ft 404 kts 261°
2026-05-06 04:05 35.59095 -113.74416 25870 ft 407 kts 261°
2026-05-06 04:05 35.58524 -113.77837 25872 ft 410 kts 260°
2026-05-06 04:05 35.57931 -113.81216 25877 ft 411 kts 260°
2026-05-06 04:05 35.57333 -113.84663 25880 ft 413 kts 261°
2026-05-06 04:06 35.56751 -113.88128 25888 ft 414 kts 261°
2026-05-06 04:06 35.56161 -113.91595 25885 ft 415 kts 260°
2026-05-06 04:06 35.55558 -113.95056 25891 ft 416 kts 260°
2026-05-06 04:06 35.54955 -113.98540 25892 ft 416 kts 260°
2026-05-06 04:07 35.54361 -114.02021 25890 ft 417 kts 260°
2026-05-06 04:07 35.53761 -114.05501 25887 ft 417 kts 260°
2026-05-06 04:07 35.53152 -114.08991 25885 ft 417 kts 260°
2026-05-06 04:07 35.52548 -114.12470 25875 ft 418 kts 260°
2026-05-06 04:08 35.51960 -114.15871 25872 ft 418 kts 260°
2026-05-06 04:08 35.51363 -114.19311 25860 ft 418 kts 259°
2026-05-06 04:08 35.50749 -114.22816 25852 ft 418 kts 259°
2026-05-06 04:08 35.50140 -114.26294 25848 ft 418 kts 259°
2026-05-06 04:09 35.49530 -114.29784 25851 ft 418 kts 259°
2026-05-06 04:09 35.48920 -114.33276 25858 ft 418 kts 259°
2026-05-06 04:09 35.48305 -114.36771 25861 ft 417 kts 259°
2026-05-06 04:09 35.47690 -114.40252 25859 ft 417 kts 259°
2026-05-06 04:10 35.47079 -114.43730 25865 ft 417 kts 259°
2026-05-06 04:10 35.46468 -114.47205 25866 ft 417 kts 259°
2026-05-06 04:10 35.45853 -114.50674 25872 ft 417 kts 259°
2026-05-06 04:10 35.45234 -114.54156 25873 ft 417 kts 259°
2026-05-06 04:11 35.44618 -114.57625 25874 ft 416 kts 259°
2026-05-06 04:11 35.44000 -114.61104 25879 ft 416 kts 259°
2026-05-06 04:11 35.43384 -114.64568 25883 ft 416 kts 259°
2026-05-06 04:11 35.42766 -114.68028 25884 ft 416 kts 259°
2026-05-06 04:12 35.42154 -114.71447 25883 ft 416 kts 259°
2026-05-06 04:12 35.41534 -114.74908 25883 ft 416 kts 259°
2026-05-06 04:12 35.40913 -114.78372 25888 ft 415 kts 259°
2026-05-06 04:12 35.40294 -114.81824 25897 ft 415 kts 259°
2026-05-06 04:13 35.39669 -114.85286 25898 ft 415 kts 259°
2026-05-06 04:13 35.39045 -114.88744 25901 ft 415 kts 258°
2026-05-06 04:13 35.38424 -114.92188 25901 ft 414 kts 258°
2026-05-06 04:13 35.37621 -114.95602 25903 ft 415 kts 251°
2026-05-06 04:14 35.36626 -114.98897 25908 ft 414 kts 250°
2026-05-06 04:14 35.35618 -115.02213 25910 ft 414 kts 251°
2026-05-06 04:14 35.34697 -115.05514 25916 ft 414 kts 252°
2026-05-06 04:14 35.33760 -115.08890 25915 ft 414 kts 251°
2026-05-06 04:15 35.32781 -115.12201 25917 ft 414 kts 250°
2026-05-06 04:15 35.31808 -115.15468 25920 ft 413 kts 251°
2026-05-06 04:15 35.30851 -115.18830 25921 ft 413 kts 251°
2026-05-06 04:15 35.29909 -115.22147 25926 ft 413 kts 251°
2026-05-06 04:16 35.28937 -115.25451 25925 ft 413 kts 251°
2026-05-06 04:16 35.27975 -115.28711 25928 ft 413 kts 251°
2026-05-06 04:16 35.27018 -115.32023 25929 ft 413 kts 251°
2026-05-06 04:16 35.26063 -115.35338 25933 ft 413 kts 251°
2026-05-06 04:17 35.25092 -115.38639 25927 ft 413 kts 251°
2026-05-06 04:17 35.24120 -115.41948 25934 ft 412 kts 251°
2026-05-06 04:17 35.23157 -115.45256 25929 ft 412 kts 251°
2026-05-06 04:17 35.22199 -115.48547 25929 ft 412 kts 251°
2026-05-06 04:18 35.21230 -115.51839 25928 ft 411 kts 250°
2026-05-06 04:18 35.20261 -115.55133 25927 ft 411 kts 250°
2026-05-06 04:18 35.19295 -115.58429 25928 ft 411 kts 250°
2026-05-06 04:18 35.18328 -115.61722 25927 ft 411 kts 250°
2026-05-06 04:19 35.17371 -115.64962 25927 ft 411 kts 250°
2026-05-06 04:19 35.16403 -115.68241 25923 ft 411 kts 250°
2026-05-06 04:19 35.15434 -115.71530 25923 ft 410 kts 250°
2026-05-06 04:19 35.14467 -115.74806 25918 ft 410 kts 250°
2026-05-06 04:20 35.13497 -115.78080 25912 ft 410 kts 250°
2026-05-06 04:20 35.12469 -115.81324 25904 ft 410 kts 245°
2026-05-06 04:20 35.11069 -115.84356 25903 ft 409 kts 237°
2026-05-06 04:20 35.09490 -115.87244 25903 ft 409 kts 235°
2026-05-06 04:21 35.07950 -115.90168 25894 ft 409 kts 238°
2026-05-06 04:21 35.06510 -115.93161 25894 ft 409 kts 239°
2026-05-06 04:21 35.05042 -115.96138 25895 ft 409 kts 237°
2026-05-06 04:21 35.03505 -115.99058 25892 ft 408 kts 236°
2026-05-06 04:22 35.01979 -116.01985 25887 ft 409 kts 238°
2026-05-06 04:22 35.00500 -116.04953 25893 ft 409 kts 238°
2026-05-06 04:22 34.99024 -116.07908 25886 ft 409 kts 237°
2026-05-06 04:23 34.95988 -116.13774 25892 ft 408 kts 237°
2026-05-06 04:23 34.94496 -116.16715 25891 ft 408 kts 237°
2026-05-06 04:23 34.93028 -116.19619 25895 ft 407 kts 237°
2026-05-06 04:23 34.91574 -116.22574 25893 ft 407 kts 242°
2026-05-06 04:24 34.90351 -116.25697 25815 ft 409 kts 245°
2026-05-06 04:24 34.89179 -116.28890 25469 ft 417 kts 245°
2026-05-06 04:24 34.87937 -116.32121 25140 ft 422 kts 244°
2026-05-06 04:24 34.86639 -116.35354 24811 ft 426 kts 243°
2026-05-06 04:25 34.85356 -116.38623 24499 ft 429 kts 244°
2026-05-06 04:25 34.84102 -116.41921 24182 ft 429 kts 245°
2026-05-06 04:25 34.82840 -116.45201 23872 ft 428 kts 244°
2026-05-06 04:25 34.81546 -116.48471 23568 ft 426 kts 244°
2026-05-06 04:26 34.80281 -116.51685 23274 ft 418 kts 244°
2026-05-06 04:26 34.79133 -116.54892 22986 ft 411 kts 251°
2026-05-06 04:26 34.78492 -116.58240 22864 ft 402 kts 261°
2026-05-06 04:26 34.78182 -116.61593 22640 ft 397 kts 263°
2026-05-06 04:27 34.77875 -116.64872 22399 ft 393 kts 262°
2026-05-06 04:27 34.77532 -116.68157 22148 ft 390 kts 262°
2026-05-06 04:27 34.77209 -116.71421 22003 ft 386 kts 263°
2026-05-06 04:27 34.76914 -116.74635 22004 ft 378 kts 263°
2026-05-06 04:28 34.76612 -116.77799 21997 ft 377 kts 262°
2026-05-06 04:28 34.76285 -116.80989 21999 ft 384 kts 262°
2026-05-06 04:28 34.75960 -116.84237 22002 ft 389 kts 262°
2026-05-06 04:28 34.75645 -116.87530 21999 ft 394 kts 263°
2026-05-06 04:29 34.75319 -116.90854 22001 ft 397 kts 262°
2026-05-06 04:29 34.74975 -116.94157 21997 ft 400 kts 262°
2026-05-06 04:29 34.74627 -116.97527 21992 ft 402 kts 262°
2026-05-06 04:29 34.74291 -117.00906 21989 ft 404 kts 262°
2026-05-06 04:30 34.73951 -117.04301 21988 ft 405 kts 262°
2026-05-06 04:30 34.73601 -117.07702 21986 ft 406 kts 262°
2026-05-06 04:30 34.73365 -117.09971 22012 ft 406 kts 262°
2026-05-06 04:30 34.73015 -117.13383 22022 ft 407 kts 262°
2026-05-06 04:31 34.72667 -117.16807 22036 ft 407 kts 262°
2026-05-06 04:31 34.72317 -117.20218 21893 ft 411 kts 262°
2026-05-06 04:31 34.72123 -117.22087 21696 ft 0 kts 262°